Location: Emporia
(38.4040°N, 96.1810°W)
Time: 11:47:08
(UTC-05:00)

Amateur Radio Satellites - All Passes

Search period start: 25 July 2017 11:17
Search period end: 26 July 2017 11:17
Location: Emporia, 38.4040°N, 96.1810°W

Satellite Date Start Highest point End Downlink Frequencies (MHz)
Time Altitude Azimuth
DELFI C3 25 Jul 11:17:30 11:21:29 66° 284° (WNW) 11:25:27 145.870
AIST 2D 25 Jul 11:27:45 11:30:51 31° 73° (ENE) 11:33:57 435.315
FO-29 25 Jul 11:37:07 11:43:12 26° 269° (W) 11:49:31 435.910
EO-88 25 Jul 11:41:19 11:44:51 49° 285° (WNW) 11:48:22 145.990 - 145.960
LO-87 25 Jul 11:45:30 11:48:03 18° 94° (E) 11:50:33 145.935 - 145.965
ESTCUBE 1 25 Jul 11:49:10 11:51:38 14° 92° (E) 11:54:06 437.505/2401.250
NO-84 25 Jul 11:51:32 11:54:30 63° 318° (NW) 11:57:42 435.350 FM
PRISM 25 Jul 11:52:16 11:54:30 14° 267° (W) 11:56:46 437.425
UNISAT 6 25 Jul 12:00:26 12:02:23 12° 269° (W) 12:04:20 437.425
DUCHIFAT 1 25 Jul 12:14:41 12:18:42 44° 73° (ENE) 12:22:44 145.980
POLYITAN 1 25 Jul 12:17:25 12:21:38 61° 75° (ENE) 12:25:51 437.675
QB50P2 25 Jul 12:30:25 12:34:42 85° 257° (WSW) 12:38:59 145.880/145.840
NANOSAT C BR1 25 Jul 12:42:12 12:46:26 76° 257° (WSW) 12:50:42 145.865
EO-79 25 Jul 12:42:24 12:46:38 68° 259° (WSW) 12:50:54 145.935-145.965
BUGSAT 1 25 Jul 12:42:48 12:46:18 26° 69° (ENE) 12:49:49 437.445
AO-85 25 Jul 12:47:26 12:51:08 36° 115° (ESE) 12:54:46 145.980
AIST 2D 25 Jul 13:02:31 13:04:08 13° 267° (W) 13:05:44 435.315
LO-87 25 Jul 13:18:30 13:21:26 23° 289° (WNW) 13:24:19 145.935 - 145.965
SPROUT 25 Jul 13:20:48 13:24:44 36° 98° (E) 13:28:38 437.525
Oscar 19 25 Jul 13:21:54 13:26:22 31° 68° (ENE) 13:30:51 437.125/150
BEESAT 3 25 Jul 13:23:37 13:27:35 84° 301° (WNW) 13:31:38 437.485
ESTCUBE 1 25 Jul 13:24:18 13:28:40 49° 287° (WNW) 13:33:01 437.505/2401.250
NO-84 25 Jul 13:31:59 13:32:37 10° 338° (NNW) 13:33:17 435.350 FM
AO-7 25 Jul 13:41:01 13:43:34 12° 46° (NE) 13:46:08 .
Gurwin Techsat 1B 25 Jul 13:50:20 13:55:11 38° 69° (ENE) 14:00:04 435.225
DUCHIFAT 1 25 Jul 13:52:17 13:54:34 14° 268° (W) 13:56:50 145.980
POLYITAN 1 25 Jul 13:57:15 13:57:46 10° 270° (W) 13:58:16 437.675
PCSat 25 Jul 14:04:14 14:08:44 26° 51° (NE) 14:13:11 145.827
BEESAT 2 25 Jul 14:04:14 14:08:12 88° 130° (SE) 14:12:15 435.950
VELOX 1 25 Jul 14:08:16 14:12:44 77° 284° (WNW) 14:17:11 145.980
DX 1 25 Jul 14:12:49 14:16:48 33° 98° (E) 14:20:45 434.975-435.025
50 SAT 25 Jul 14:17:21 14:20:45 58° 101° (E) 14:24:08 437.505
BUGSAT 1 25 Jul 14:18:06 14:21:34 24° 264° (W) 14:25:02 437.445
AO-85 25 Jul 14:28:47 14:31:37 19° 312° (NW) 14:34:26 145.980
UKube-1 25 Jul 14:54:21 14:58:41 66° 101° (ESE) 15:02:58 .
SPROUT 25 Jul 14:57:27 15:00:21 18° 293° (WNW) 15:03:14 437.525
Oscar 19 25 Jul 15:01:15 15:05:38 28° 264° (W) 15:10:02 437.125/150
ITAMSAT 1 25 Jul 15:14:21 15:18:45 28° 67° (ENE) 15:23:08 435.822/435.867
RS-15 25 Jul 15:16:16 15:26:40 35° 104° (ESE) 15:37:13 29.354- 29.394
ITUPSAT 1 25 Jul 15:17:30 15:17:48 10° 90° (E) 15:18:06 437.325
AO-7 25 Jul 15:26:25 15:34:29 56° 66° (ENE) 15:42:36 .
Gurwin Techsat 1B 25 Jul 15:30:52 15:35:11 25° 265° (W) 15:39:31 435.225
O/OREOS (USA 219) 25 Jul 15:44:08 15:48:33 60° 108° (ESE) 15:52:58 437.305
BEESAT 2 25 Jul 15:45:44 15:46:33 10° 318° (NW) 15:47:22 435.950
SO-50 25 Jul 15:46:48 15:51:18 58° 57° (ENE) 15:55:49 436.795
PCSat 25 Jul 15:47:09 15:52:18 45° 248° (WSW) 15:57:24 145.827
DX 1 25 Jul 15:49:29 15:52:44 21° 293° (WNW) 15:55:58 434.975-435.025
MOZHAYETS 4 25 Jul 15:57:58 16:01:34 23° 95° (E) 16:05:09
UKube-1 25 Jul 16:32:55 16:34:07 11° 297° (WNW) 16:35:19 .
CUBESAT XI-V 25 Jul 16:36:09 16:37:00 10° 90° (E) 16:37:51 437.345
BEESAT 25 Jul 16:37:45 16:42:32 82° 103° (ESE) 16:47:16 436.000
ITUPSAT 1 25 Jul 16:51:21 16:56:06 74° 285° (WNW) 17:00:50 437.325
ITAMSAT 1 25 Jul 16:53:20 16:58:03 34° 263° (W) 17:02:47 435.822/435.867
DOVE 4 25 Jul 17:17:15 17:21:15 26° 67° (ENE) 17:25:25 437.250
AO-7 25 Jul 17:20:22 17:27:31 31° 263° (W) 17:34:44 .
O/OREOS (USA 219) 25 Jul 17:26:10 17:28:22 13° 305° (NW) 17:30:33 437.305
RS-15 25 Jul 17:26:11 17:38:19 68° 305° (NW) 17:50:41 29.354- 29.394
SO-50 25 Jul 17:28:56 17:31:16 14° 251° (WSW) 17:33:36 436.795
MOZHAYETS 4 25 Jul 17:34:42 17:38:43 31° 290° (WNW) 17:42:43
XW-2D 25 Jul 17:39:39 17:41:06 12° 66° (ENE) 17:42:32 145.860 - 145.880
XW-2B 25 Jul 17:48:55 17:51:05 15° 68° (ENE) 17:53:16 145.730 - 145.750
HO-68 25 Jul 18:00:46 18:04:03 14° 54° (NE) 18:07:19 435.675
XW-2C 25 Jul 18:05:19 18:08:21 24° 71° (ENE) 18:11:24 145.795 - 145.815
CUBESAT XI-V 25 Jul 18:10:08 18:14:48 70° 284° (WNW) 18:19:28 437.345
NUDT-PHONESAT 25 Jul 18:11:08 18:13:53 20° 70° (ENE) 18:16:38 437.300
KKS-1 25 Jul 18:11:22 18:15:48 63° 101° (E) 18:20:13 437.445
BEESAT 25 Jul 18:18:45 18:19:35 10° 299° (WNW) 18:20:24 436.000
NO-84 25 Jul 18:25:25 18:29:05 40° 39° (NE) 18:33:00 435.350 FM
KAITUO 1B 25 Jul 18:25:44 18:29:02 31° 72° (ENE) 18:32:20 145.475/437.950
LilacSat-2 25 Jul 18:28:38 18:32:18 51° 74° (ENE) 18:35:58 437.200
STARS 25 Jul 18:39:36 18:43:55 51° 100° (E) 18:48:10 437.465
CUTE 1.7 + AOD 2 25 Jul 18:40:27 18:41:28 11° 64° (ENE) 18:42:30 437.475
XW-2F 25 Jul 18:41:56 18:45:38 68° 77° (ENE) 18:49:21 145.980 - 146.000
CUTE-I 25 Jul 18:43:56 18:49:15 68° 73° (ENE) 18:54:36 437.470
DOVE 4 25 Jul 18:54:19 18:58:43 34° 265° (W) 19:03:21 437.250
YUBILEINY 25 Jul 18:58:57 19:07:16 48° 88° (E) 19:15:33 435.215
XW-2D 25 Jul 19:11:18 19:14:52 42° 261° (W) 19:18:27 145.860 - 145.880
XW-2A 25 Jul 19:20:17 19:22:15 15° 69° (ENE) 19:24:14 145.665 - 145.685
XW-2B 25 Jul 19:21:35 19:24:59 33° 262° (W) 19:28:24 145.730 - 145.750
UWE-3 25 Jul 19:22:42 19:23:49 11° 64° (ENE) 19:24:56 435.000/436.395/437.385
Tancredo 1 25 Jul 19:24:57 19:26:37 14° 130° (SE) 19:28:16 437.200
AAUSAT CUBESAT 2 25 Jul 19:32:44 19:34:13 12° 65° (ENE) 19:35:41 437.432
STRAND 1 25 Jul 19:37:29 19:39:52 13° 91° (E) 19:42:14 437.568
XW-2C 25 Jul 19:39:42 19:42:28 20° 265° (W) 19:45:16 145.795 - 145.815
HO-68 25 Jul 19:43:25 19:50:34 75° 71° (ENE) 19:57:44 435.675
RS-15 25 Jul 19:44:08 19:53:46 25° 333° (NNW) 20:03:24 29.354- 29.394
NUDT-PHONESAT 25 Jul 19:44:42 19:47:38 22° 264° (W) 19:50:35 437.300
KKS-1 25 Jul 19:50:01 19:51:48 12° 297° (WNW) 19:53:34 437.445
nSIGHT-1 25 Jul 19:53:38 19:54:24 11° 128° (SE) 19:55:11 .
CUBEBUG 2 25 Jul 19:58:32 20:03:01 46° 73° (ENE) 20:07:26 437.445
KAITUO 1B 25 Jul 20:01:04 20:03:06 14° 267° (W) 20:05:09 145.475/437.950
NO-84 25 Jul 20:03:11 20:06:28 24° 233° (SW) 20:09:54 435.350 FM
CUTE 1.7 + AOD 2 25 Jul 20:12:36 20:16:45 61° 260° (W) 20:20:55 437.475
AO-73 25 Jul 20:12:43 20:15:44 18° 68° (ENE) 20:18:43 145.935
STARS 25 Jul 20:17:29 20:19:47 14° 296° (WNW) 20:22:04 437.465
SEEDS 25 Jul 20:23:31 20:27:39 75° 259° (W) 20:31:49 437.485
CUTE-I 25 Jul 20:27:02 20:29:44 14° 269° (W) 20:32:27 437.470
ISS 25 Jul 20:45:49 20:48:52 39° 135° (SE) 20:51:55 437.550
XW-2A 25 Jul 20:51:53 20:54:45 25° 263° (W) 20:57:38 145.665 - 145.685
UWE-3 25 Jul 20:55:05 20:59:40 73° 259° (W) 21:04:10 435.000/436.395/437.385
YUBILEINY 25 Jul 20:56:16 21:04:10 36° 287° (WNW) 21:12:08 435.215
Tancredo 1 25 Jul 20:58:55 21:01:44 42° 325° (NW) 21:04:33 437.200
AAUSAT CUBESAT 2 25 Jul 21:05:10 21:09:09 53° 260° (W) 21:13:12 437.432
ZACube-1 25 Jul 21:07:22 21:11:49 85° 76° (ENE) 21:16:12 437.345
STRAND 1 25 Jul 21:14:24 21:19:28 65° 287° (WNW) 21:24:30 437.568
AO-85 25 Jul 21:19:22 21:22:47 23° 50° (NE) 21:26:21 145.980
nSIGHT-1 25 Jul 21:27:10 21:30:23 68° 322° (NW) 21:33:36 .
Oscar 11 25 Jul 21:32:23 21:36:40 75° 258° (WSW) 21:40:59 .
HO-68 25 Jul 21:34:11 21:38:54 18° 268° (W) 21:43:37 435.675
CUBEBUG 2 25 Jul 21:36:52 21:39:48 16° 267° (W) 21:42:42 437.445
BEESAT 3 25 Jul 21:41:54 21:45:34 33° 53° (NE) 21:49:09 437.485
AO-73 25 Jul 21:47:34 21:51:41 37° 262° (W) 21:55:44 145.935
DELFI C3 25 Jul 22:00:56 22:04:45 52° 74° (ENE) 22:08:36 145.870
RS-15 25 Jul 22:04:30 22:12:37 19° 10° (N) 22:20:33 29.354- 29.394
UNISAT 6 25 Jul 22:15:57 22:17:50 13° 91° (E) 22:19:44 437.425
EO-88 25 Jul 22:17:06 22:20:37 49° 74° (ENE) 22:24:09 145.990 - 145.960
ISS 25 Jul 22:22:43 22:25:25 24° 332° (NNW) 22:28:07 437.550
BEESAT 2 25 Jul 22:23:24 22:27:04 31° 52° (NE) 22:30:41 435.950
FO-29 25 Jul 22:47:50 22:54:49 62° 100° (E) 23:00:55 435.910
ESTCUBE 1 25 Jul 22:48:28 22:50:03 12° 63° (ENE) 22:51:38 437.505/2401.250
M-CUBED/EXP-1 PRIME 25 Jul 22:52:35 22:53:50 11° 95° (E) 22:55:04 437.505
TIGRISAT 25 Jul 22:58:15 23:02:13 36° 98° (E) 23:06:07 435.000
AO-85 25 Jul 22:59:17 23:03:12 35° 245° (WSW) 23:07:23 145.980
nSIGHT-1 25 Jul 23:05:32 23:07:16 14° 340° (NNW) 23:09:00 .
BEESAT 3 25 Jul 23:20:02 23:22:52 19° 249° (WSW) 23:25:41 437.485
PRISM 25 Jul 23:32:38 23:36:49 84° 103° (ESE) 23:40:59 437.425
UNISAT 6 25 Jul 23:50:40 23:54:50 48° 287° (WNW) 23:58:56 437.425
LO-87 25 Jul 23:51:54 23:55:32 80° 258° (WSW) 23:59:11 145.935 - 145.965
JUGNU 26 Jul 00:00:13 00:01:33 11° 172° (S) 00:02:53 437.505
BEESAT 2 26 Jul 00:01:33 00:04:36 21° 249° (WSW) 00:07:38 435.950
POLYITAN 1 26 Jul 00:06:25 00:07:17 11° 91° (E) 00:08:08 437.675
SPROUT 26 Jul 00:12:50 00:16:14 23° 69° (ENE) 00:19:39 437.525
QB50P2 26 Jul 00:17:49 00:20:34 17° 93° (E) 00:23:19 145.880/145.840
RS-15 26 Jul 00:18:33 00:29:52 42° 43° (NE) 00:40:37 29.354- 29.394
ESTCUBE 1 26 Jul 00:21:50 00:26:16 65° 259° (W) 00:30:44 437.505/2401.250
M-CUBED/EXP-1 PRIME 26 Jul 00:23:58 00:28:36 73° 289° (WNW) 00:33:14 437.505
AIST 2D 26 Jul 00:26:44 00:30:08 47° 99° (E) 00:33:31 435.315
NANOSAT C BR1 26 Jul 00:28:50 00:31:46 18° 94° (E) 00:34:41 145.865
EO-79 26 Jul 00:29:11 00:32:22 21° 95° (E) 00:35:32 145.935-145.965
FO-29 26 Jul 00:33:53 00:39:07 23° 300° (WNW) 00:43:56 435.910
TIGRISAT 26 Jul 00:35:43 00:38:37 18° 293° (WNW) 00:41:28 435.000
50 SAT 26 Jul 00:48:12 00:50:20 16° 69° (ENE) 00:52:29 437.505
VELOX 1 26 Jul 01:03:31 01:07:55 77° 75° (ENE) 01:12:22 145.980
DX 1 26 Jul 01:07:02 01:10:34 25° 68° (ENE) 01:14:07 434.975-435.025
DUCHIFAT 1 26 Jul 01:35:17 01:39:28 81° 286° (WNW) 01:43:38 145.980
Oscar 19 26 Jul 01:36:46 01:38:37 12° 90° (E) 01:40:26 437.125/150
POLYITAN 1 26 Jul 01:39:16 01:43:24 56° 285° (WNW) 01:47:28 437.675
ISS 26 Jul 01:40:26 01:40:36 10° 12° (NNE) 01:40:45 437.550
UKube-1 26 Jul 01:47:04 01:51:09 44° 72° (ENE) 01:55:17 .
JUGNU 26 Jul 01:47:25 01:49:39 12° 183° (S) 01:51:53 437.505
SPROUT 26 Jul 01:48:18 01:51:59 28° 264° (W) 01:55:41 437.525
Tancredo 1 26 Jul 01:48:58 01:50:48 15° 24° (NNE) 01:52:39 437.200
QB50P2 26 Jul 01:52:36 01:56:28 35° 288° (WNW) 02:00:17 145.880/145.840
O/OREOS (USA 219) 26 Jul 01:55:29 01:59:59 90° 69° (ENE) 02:04:30 437.305
BUGSAT 1 26 Jul 02:00:26 02:04:25 51° 100° (E) 02:08:21 437.445
NANOSAT C BR1 26 Jul 02:03:47 02:07:32 32° 289° (WNW) 02:11:15 145.865
EO-79 26 Jul 02:04:29 02:08:07 29° 290° (WNW) 02:11:44 145.935-145.965
Gurwin Techsat 1B 26 Jul 02:09:02 02:12:21 17° 92° (E) 02:15:38 435.225
50 SAT 26 Jul 02:20:03 02:22:51 24° 263° (W) 02:25:41 437.505
nSIGHT-1 26 Jul 02:20:30 02:22:26 15° 21° (NNE) 02:24:21 .
ITUPSAT 1 26 Jul 02:22:16 02:23:53 12° 61° (ENE) 02:25:30 437.325
RS-15 26 Jul 02:31:14 02:43:00 64° 247° (WSW) 02:54:08 29.354- 29.394
DX 1 26 Jul 02:42:55 02:46:37 27° 264° (W) 02:50:21 434.975-435.025
SRMSAT 26 Jul 02:51:17 02:52:36 11° 173° (S) 02:53:55 437.500
MOZHAYETS 4 26 Jul 02:58:47 03:02:01 19° 67° (ENE) 03:05:14
Oscar 19 26 Jul 03:13:15 03:18:25 74° 285° (WNW) 03:23:35 437.125/150
ISS 26 Jul 03:14:55 03:17:53 31° 31° (NNE) 03:20:50 437.550
Tancredo 1 26 Jul 03:23:33 03:26:29 71° 221° (SW) 03:29:25 437.200
UKube-1 26 Jul 03:25:00 03:27:22 14° 267° (W) 03:29:46 .
AO-7 26 Jul 03:31:30 03:36:47 18° 92° (E) 03:42:01 .
BUGSAT 1 26 Jul 03:37:41 03:39:18 12° 296° (WNW) 03:40:54 437.445
BEESAT 26 Jul 03:42:19 03:47:05 80° 76° (ENE) 03:51:52 436.000
Gurwin Techsat 1B 26 Jul 03:47:24 03:52:37 57° 287° (WNW) 03:57:48 435.225
nSIGHT-1 26 Jul 03:56:01 03:59:16 81° 40° (NE) 04:02:29 .
ITUPSAT 1 26 Jul 03:56:15 04:01:02 75° 257° (WSW) 04:05:50 437.325
MOZHAYETS 4 26 Jul 04:34:35 04:38:51 39° 262° (W) 04:43:09
SRMSAT 26 Jul 04:38:47 04:40:51 12° 183° (S) 04:42:55 437.500
PCSat 26 Jul 04:44:28 04:49:04 29° 108° (ESE) 04:53:41 145.827
RS-15 26 Jul 04:50:14 04:52:43 11° 267° (W) 04:55:12 29.354- 29.394
ISS 26 Jul 04:51:31 04:54:16 25° 227° (SW) 04:57:01 437.550
ITAMSAT 1 26 Jul 05:07:01 05:12:14 86° 286° (WNW) 05:17:25 435.822/435.867
KKS-1 26 Jul 05:07:37 05:11:54 47° 72° (ENE) 05:16:13 437.445
CUBESAT XI-V 26 Jul 05:11:33 05:16:08 86° 255° (WSW) 05:20:45 437.345
YUBILEINY 26 Jul 05:11:51 05:18:07 21° 66° (ENE) 05:24:20 435.215
AO-7 26 Jul 05:22:00 05:30:25 86° 289° (WNW) 05:38:45 .
STARS 26 Jul 05:34:29 05:38:34 38° 71° (ENE) 05:42:41 437.465
SO-50 26 Jul 06:00:10 06:03:55 26° 112° (ESE) 06:07:39 436.795
PCSat 26 Jul 06:27:18 06:32:17 37° 305° (NW) 06:37:20 145.827
XW-2D 26 Jul 06:45:37 06:48:25 20° 95° (E) 06:51:13 145.860 - 145.880
KKS-1 26 Jul 06:46:12 06:48:41 15° 268° (W) 06:51:11 437.445
ITAMSAT 1 26 Jul 06:50:00 06:50:51 10° 301° (WNW) 06:51:42 435.822/435.867
STRAND 1 26 Jul 06:51:36 06:55:00 18° 64° (ENE) 06:58:24 437.568
DOVE 4 26 Jul 06:54:04 06:59:21 79° 102° (ESE) 07:04:23 437.250
XW-2B 26 Jul 06:55:25 06:58:34 25° 96° (E) 07:01:43 145.730 - 145.750
CUTE-I 26 Jul 07:02:56 07:07:36 30° 96° (E) 07:12:14 437.470
YUBILEINY 26 Jul 07:07:07 07:15:53 78° 266° (W) 07:24:33 435.215
STARS 26 Jul 07:11:59 07:15:01 18° 266° (W) 07:18:03 437.465
XW-2C 26 Jul 07:12:28 07:16:04 42° 99° (E) 07:19:40 145.795 - 145.815
HO-68 26 Jul 07:15:25 07:18:53 14° 90° (E) 07:22:21 435.675
NUDT-PHONESAT 26 Jul 07:15:39 07:19:00 33° 97° (E) 07:22:20 437.300
AO-7 26 Jul 07:16:37 07:21:59 19° 308° (NW) 07:27:21 .
KAITUO 1B 26 Jul 07:31:34 07:35:14 57° 100° (E) 07:38:55 145.475/437.950
LilacSat-2 26 Jul 07:37:06 07:40:54 82° 283° (WNW) 07:44:41 437.200
SO-50 26 Jul 07:40:09 07:44:13 32° 309° (NW) 07:48:18 436.795
XW-2F 26 Jul 07:49:17 07:52:59 63° 284° (WNW) 07:56:42 145.980 - 146.000
CUTE 1.7 + AOD 2 26 Jul 07:59:13 08:02:42 24° 95° (E) 08:06:11 437.475
SEEDS 26 Jul 08:09:23 08:12:29 20° 94° (E) 08:15:34 437.485
XW-2A 26 Jul 08:15:10 08:17:30 18° 95° (E) 08:19:49 145.665 - 145.685
XW-2D 26 Jul 08:19:28 08:22:32 24° 289° (WNW) 08:25:36 145.860 - 145.880
STRAND 1 26 Jul 08:28:42 08:33:43 53° 260° (W) 08:38:46 437.568
XW-2B 26 Jul 08:29:52 08:32:35 19° 291° (WNW) 08:35:19 145.730 - 145.750
DOVE 4 26 Jul 08:33:59 08:36:14 13° 299° (WNW) 08:38:28 437.250
CUTE-I 26 Jul 08:42:53 08:47:35 32° 292° (WNW) 08:52:16 437.470
UWE-3 26 Jul 08:46:51 08:50:13 23° 95° (E) 08:53:31 435.000/436.395/437.385
XW-2C 26 Jul 08:48:21 08:49:51 12° 294° (WNW) 08:51:21 145.795 - 145.815
AAUSAT CUBESAT 2 26 Jul 08:48:54 08:52:21 25° 95° (E) 08:55:48 437.432
NUDT-PHONESAT 26 Jul 08:50:34 08:52:35 14° 292° (WNW) 08:54:37 437.300
FO-29 26 Jul 08:57:07 09:03:25 29° 62° (ENE) 09:09:50 435.910
ZACube-1 26 Jul 08:58:15 09:00:56 17° 93° (E) 09:03:36 437.345
HO-68 26 Jul 09:00:14 09:07:26 90° 102° (ESE) 09:14:35 435.675
YUBILEINY 26 Jul 09:07:39 09:11:05 13° 285° (WNW) 09:14:31 435.215
UNISAT 6 26 Jul 09:14:08 09:15:36 11° 63° (ENE) 09:17:03 437.425
Oscar 11 26 Jul 09:21:37 09:24:57 22° 95° (E) 09:28:17 .
CUBEBUG 2 26 Jul 09:27:19 09:31:30 62° 285° (WNW) 09:35:35 437.445
CUTE 1.7 + AOD 2 26 Jul 09:34:56 09:38:27 26° 290° (WNW) 09:41:57 437.475
AO-73 26 Jul 09:36:39 09:40:35 42° 99° (E) 09:44:30 145.935
SEEDS 26 Jul 09:44:27 09:48:10 31° 289° (WNW) 09:51:55 437.485
XW-2A 26 Jul 09:47:38 09:50:09 20° 289° (WNW) 09:52:39 145.665 - 145.685
TIGRISAT 26 Jul 09:55:09 09:59:07 29° 70° (ENE) 10:03:02 435.000
PRISM 26 Jul 10:20:06 10:24:00 46° 73° (ENE) 10:27:57 437.425
UWE-3 26 Jul 10:23:11 10:26:36 25° 290° (WNW) 10:29:58 435.000/436.395/437.385
AAUSAT CUBESAT 2 26 Jul 10:24:18 10:27:42 24° 290° (WNW) 10:31:05 437.432
ZACube-1 26 Jul 10:33:34 10:37:19 34° 288° (WNW) 10:41:03 437.345
FO-29 26 Jul 10:40:18 10:47:48 62° 260° (W) 10:55:38 435.910
UNISAT 6 26 Jul 10:47:04 10:51:42 71° 258° (WSW) 10:56:17 437.425
HO-68 26 Jul 10:49:55 10:54:11 17° 304° (NW) 10:58:27 435.675
Oscar 11 26 Jul 10:57:20 11:01:04 29° 290° (WNW) 11:04:49 .
AIST 2D 26 Jul 11:00:53 11:02:45 14° 68° (ENE) 11:04:36 435.315
M-CUBED/EXP-1 PRIME 26 Jul 11:08:32 11:12:07 74° 253° (WSW) 11:16:04 437.505
QB50P2 26 Jul 11:10:23 11:11:49 11° 64° (ENE) 11:13:15 145.880/145.840
